sat.trackr.live / text

‹ back to catalog

KUIPER-00043

NORAD 64504 · 2025-134E

PAYLOAD ACTIVE UNKNOWN

§ Identity

Operator
Country
US
Launch date
2025-06-23
Launch site
AFETR
Launch vehicle
Mass (kg)
RCS (m²)

External: N2YO · Heavens-Above · Gunter

§ Orbital elements

Epoch: 2026-05-25T00:58:02.332992Z

Period
97.30 min
Inclination
51.9000°
Eccentricity
0.0000646
Mean motion
14.79928555 rev/d
Perigee alt
629.1 km
Apogee alt
630.0 km
Semi-major
7,007.7 km
B*
1.1852e-3
RAAN
255.4195°
Arg perigee
101.4036°
Mean anomaly
258.6999°
Rev number
5,138

§ Raw data

KUIPER-000431 64504U 25134E   26145.04030478  .00008825  00000+0  11852-2 0  99992 64504  51.9000 255.4195 0000646 101.4036 258.6999 14.79928555 51388

JSON: /api/v1/satellites/64504 · /tle

For live sub-satellite position, see the globe view (requires WebGL).

§ Visibility from observer

Set your observer location to see the next 7 days of passes ≥ 10°. The values pass through the URL so the page stays shareable.

No JS? Fill the form by hand. The geolocation button needs JavaScript.